Year,Month,Day,Hour,Minute,Value (Times are PST for temperature in C)
2010,06,18,00,00,10.20
2010,06,18,00,01,10.20
2010,06,18,00,02,10.20
2010,06,18,00,03,10.20
2010,06,18,00,04,10.20
2010,06,18,00,05,10.20
2010,06,18,00,06,10.20
2010,06,18,00,07,10.20
2010,06,18,00,08,10.20
2010,06,18,00,09,10.20
2010,06,18,00,10,10.20
2010,06,18,00,11,10.20
2010,06,18,00,12,10.10
2010,06,18,00,13,10.10
2010,06,18,00,14,10.10
2010,06,18,00,15,10.10
2010,06,18,00,16,10.10
2010,06,18,00,17,10.10
2010,06,18,00,18,10.10
2010,06,18,00,19,10.10
2010,06,18,00,20,10.10
2010,06,18,00,21,10.10
2010,06,18,00,22,10.10
2010,06,18,00,23,10.10
2010,06,18,00,24,10.10
2010,06,18,00,25,10.10
2010,06,18,00,26,10.10
2010,06,18,00,27,10.10
2010,06,18,00,28,10.10
2010,06,18,00,29,10.10
2010,06,18,00,30,10.00
2010,06,18,00,31,10.00
2010,06,18,00,32,10.00
2010,06,18,00,33,10.00
2010,06,18,00,34,10.00
2010,06,18,00,35,10.00
2010,06,18,00,36,10.00
2010,06,18,00,37,10.00
2010,06,18,00,38,10.00
2010,06,18,00,39,10.00
2010,06,18,00,40,10.00
2010,06,18,00,41,10.00
2010,06,18,00,42,10.00
2010,06,18,00,43,10.00
2010,06,18,00,44,10.00
2010,06,18,00,45,9.90
2010,06,18,00,46,9.90
2010,06,18,00,47,9.90
2010,06,18,00,48,9.90
2010,06,18,00,49,10.00
2010,06,18,00,50,10.00
2010,06,18,00,51,10.00
2010,06,18,00,52,10.00
2010,06,18,00,53,10.00
2010,06,18,00,54,10.00
2010,06,18,00,55,10.00
2010,06,18,00,56,10.00
2010,06,18,00,57,10.00
2010,06,18,00,58,10.00
2010,06,18,00,59,10.00
2010,06,18,01,00,10.00
2010,06,18,01,01,10.00
2010,06,18,01,02,10.00
2010,06,18,01,03,10.00
2010,06,18,01,06,9.90
2010,06,18,01,07,9.90
2010,06,18,01,08,9.90
2010,06,18,01,09,9.90
2010,06,18,01,10,9.90
2010,06,18,01,11,9.90
2010,06,18,01,12,9.90
2010,06,18,01,13,9.90
2010,06,18,01,14,9.90
2010,06,18,01,15,9.90
2010,06,18,01,16,9.90
2010,06,18,01,17,9.90
2010,06,18,01,18,9.90
2010,06,18,01,19,9.90
2010,06,18,01,20,9.90
2010,06,18,01,21,9.90
2010,06,18,01,22,9.90
2010,06,18,01,23,9.90
2010,06,18,01,24,9.90
2010,06,18,01,25,9.90
2010,06,18,01,26,9.90
2010,06,18,01,27,9.90
2010,06,18,01,28,9.90
2010,06,18,01,29,9.90
2010,06,18,01,30,9.90
2010,06,18,01,31,9.90
2010,06,18,01,32,9.90
2010,06,18,01,33,9.90
2010,06,18,01,34,9.90
2010,06,18,01,35,9.90
2010,06,18,01,36,9.90
2010,06,18,01,37,9.90
2010,06,18,01,38,9.90
2010,06,18,01,39,9.90
2010,06,18,01,40,10.00
2010,06,18,01,41,10.00
2010,06,18,01,42,10.00
2010,06,18,01,43,10.00
2010,06,18,01,44,10.10
2010,06,18,01,45,10.10
2010,06,18,01,46,10.20
2010,06,18,01,47,10.20
2010,06,18,01,48,10.20
2010,06,18,01,49,10.30
2010,06,18,01,50,10.30
2010,06,18,01,51,10.40
2010,06,18,01,52,10.40
2010,06,18,01,53,10.50
2010,06,18,01,54,10.50
2010,06,18,01,55,10.60
2010,06,18,01,56,10.60
2010,06,18,01,57,10.60
2010,06,18,01,58,10.70
2010,06,18,01,59,10.70
2010,06,18,02,00,10.70
2010,06,18,02,01,10.70
2010,06,18,02,02,10.70
2010,06,18,02,03,10.70
2010,06,18,02,04,10.70
2010,06,18,02,05,10.70
2010,06,18,02,06,10.70
2010,06,18,02,07,10.70
2010,06,18,02,08,10.70
2010,06,18,02,09,10.70
2010,06,18,02,10,10.70
2010,06,18,02,11,10.70
2010,06,18,02,12,10.70
2010,06,18,02,13,10.70
2010,06,18,02,14,10.70
2010,06,18,02,15,10.70
2010,06,18,02,16,10.70
2010,06,18,02,17,10.70
2010,06,18,02,18,10.70
2010,06,18,02,19,10.70
2010,06,18,02,20,10.70
2010,06,18,02,21,10.70
2010,06,18,02,22,10.70
2010,06,18,02,23,10.70
2010,06,18,02,24,10.70
2010,06,18,02,25,10.60
2010,06,18,02,26,10.60
2010,06,18,02,27,10.60
2010,06,18,02,28,10.60
2010,06,18,02,29,10.60
2010,06,18,02,30,10.60
2010,06,18,02,31,10.60
2010,06,18,02,32,10.60
2010,06,18,02,33,10.50
2010,06,18,02,34,10.50
2010,06,18,02,35,10.50
2010,06,18,02,36,10.50
2010,06,18,02,37,10.50
2010,06,18,02,38,10.50
2010,06,18,02,39,10.40
2010,06,18,02,40,10.40
2010,06,18,02,41,10.40
2010,06,18,02,42,10.40
2010,06,18,02,43,10.30
2010,06,18,02,44,10.30
2010,06,18,02,45,10.30
2010,06,18,02,46,10.30
2010,06,18,02,47,10.20
2010,06,18,02,48,10.20
2010,06,18,02,49,10.20
2010,06,18,02,50,10.20
2010,06,18,02,51,10.10
2010,06,18,02,52,10.10
2010,06,18,02,53,10.00
2010,06,18,02,54,10.00
2010,06,18,02,55,9.90
2010,06,18,02,56,9.90
2010,06,18,02,57,9.90
2010,06,18,02,58,9.80
2010,06,18,02,59,9.80
2010,06,18,03,00,9.80
2010,06,18,03,01,9.80
2010,06,18,03,02,9.70
2010,06,18,03,03,9.70
2010,06,18,03,04,9.70
2010,06,18,03,05,9.70
2010,06,18,03,06,9.60
2010,06,18,03,07,9.60
2010,06,18,03,08,9.60
2010,06,18,03,09,9.60
2010,06,18,03,10,9.50
2010,06,18,03,11,9.50
2010,06,18,03,12,9.50
2010,06,18,03,13,9.40
2010,06,18,03,14,9.40
2010,06,18,03,15,9.40
2010,06,18,03,16,9.30
2010,06,18,03,17,9.30
2010,06,18,03,18,9.30
2010,06,18,03,19,9.30
2010,06,18,03,20,9.20
2010,06,18,03,21,9.20
2010,06,18,03,22,9.20
2010,06,18,03,23,9.20
2010,06,18,03,24,9.20
2010,06,18,03,25,9.10
2010,06,18,03,26,9.10
2010,06,18,03,27,9.10
2010,06,18,03,28,9.10
2010,06,18,03,29,9.00
2010,06,18,03,30,9.00
2010,06,18,03,31,9.00
2010,06,18,03,32,8.90
2010,06,18,03,33,8.90
2010,06,18,03,34,8.90
2010,06,18,03,35,8.90
2010,06,18,03,36,8.90
2010,06,18,03,37,8.90
2010,06,18,03,38,8.80
2010,06,18,03,39,8.80
2010,06,18,03,40,8.80
2010,06,18,03,41,8.80
2010,06,18,03,42,8.80
2010,06,18,03,43,8.80
2010,06,18,03,44,8.80
2010,06,18,03,45,8.80
2010,06,18,03,46,8.80
2010,06,18,03,47,8.80
2010,06,18,03,48,8.80
2010,06,18,03,49,8.80
2010,06,18,03,50,8.80
2010,06,18,03,51,8.80
2010,06,18,03,52,8.80
2010,06,18,03,53,8.70
2010,06,18,03,54,8.70
2010,06,18,03,55,8.70
2010,06,18,03,56,8.70
2010,06,18,03,57,8.70
2010,06,18,03,58,8.70
2010,06,18,03,59,8.70
2010,06,18,04,00,8.60
2010,06,18,04,01,8.60
2010,06,18,04,02,8.60
2010,06,18,04,03,8.60
2010,06,18,04,04,8.60
2010,06,18,04,05,8.60
2010,06,18,04,06,8.60
2010,06,18,04,07,8.60
2010,06,18,04,08,8.50
2010,06,18,04,09,8.50
2010,06,18,04,10,8.50
2010,06,18,04,11,8.50
2010,06,18,04,12,8.50
2010,06,18,04,13,8.40
2010,06,18,04,14,8.40
2010,06,18,04,15,8.40
2010,06,18,04,16,8.40
2010,06,18,04,17,8.40
2010,06,18,04,18,8.40
2010,06,18,04,19,8.40
2010,06,18,04,20,8.30
2010,06,18,04,21,8.30
2010,06,18,04,22,8.30
2010,06,18,04,23,8.30
2010,06,18,04,24,8.30
2010,06,18,04,25,8.30
2010,06,18,04,26,8.20
2010,06,18,04,27,8.20
2010,06,18,04,28,8.20
2010,06,18,04,29,8.20
2010,06,18,04,30,8.20
2010,06,18,04,31,8.20
2010,06,18,04,32,8.20
2010,06,18,04,33,8.10
2010,06,18,04,34,8.10
2010,06,18,04,35,8.10
2010,06,18,04,36,8.10
2010,06,18,04,37,8.10
2010,06,18,04,38,8.10
2010,06,18,04,39,8.10
2010,06,18,04,40,8.10
2010,06,18,04,41,8.10
2010,06,18,04,42,8.10
2010,06,18,04,43,8.10
2010,06,18,04,44,8.10
2010,06,18,04,45,8.10
2010,06,18,04,46,8.10
2010,06,18,04,47,8.10
2010,06,18,04,48,8.10
2010,06,18,04,49,8.10
2010,06,18,04,50,8.10
2010,06,18,04,51,8.10
2010,06,18,04,52,8.20
2010,06,18,04,53,8.20
2010,06,18,04,54,8.20
2010,06,18,04,55,8.20
2010,06,18,04,56,8.20
2010,06,18,04,57,8.20
2010,06,18,04,58,8.20
2010,06,18,04,59,8.20
2010,06,18,05,00,8.20
2010,06,18,05,01,8.20
2010,06,18,05,02,8.20
2010,06,18,05,03,8.20
2010,06,18,05,04,8.30
2010,06,18,05,05,8.30
2010,06,18,05,06,8.30
2010,06,18,05,07,8.30
2010,06,18,05,08,8.30
2010,06,18,05,09,8.30
2010,06,18,05,10,8.30
2010,06,18,05,11,8.40
2010,06,18,05,12,8.40
2010,06,18,05,13,8.40
2010,06,18,05,14,8.40
2010,06,18,05,15,8.40
2010,06,18,05,16,8.40
2010,06,18,05,17,8.40
2010,06,18,05,18,8.40
2010,06,18,05,19,8.40
2010,06,18,05,20,8.40
2010,06,18,05,21,8.40
2010,06,18,05,22,8.40
2010,06,18,05,23,8.40
2010,06,18,05,24,8.40
2010,06,18,05,25,8.40
2010,06,18,05,26,8.40
2010,06,18,05,27,8.40
2010,06,18,05,28,8.40
2010,06,18,05,29,8.40
2010,06,18,05,30,8.40
2010,06,18,05,31,8.40
2010,06,18,05,32,8.40
2010,06,18,05,33,8.40
2010,06,18,05,34,8.50
2010,06,18,05,35,8.50
2010,06,18,05,36,8.50
2010,06,18,05,37,8.50
2010,06,18,05,38,8.50
2010,06,18,05,39,8.60
2010,06,18,05,40,8.60
2010,06,18,05,41,8.60
2010,06,18,05,42,8.60
2010,06,18,05,43,8.60
2010,06,18,05,44,8.70
2010,06,18,05,45,8.70
2010,06,18,05,46,8.70
2010,06,18,05,47,8.70
2010,06,18,05,48,8.70
2010,06,18,05,49,8.70
2010,06,18,05,50,8.70
2010,06,18,05,51,8.70
2010,06,18,05,52,8.70
2010,06,18,05,53,8.80
2010,06,18,05,54,8.80
2010,06,18,05,55,8.80
2010,06,18,05,56,8.80
2010,06,18,05,57,8.80
2010,06,18,05,58,8.80
2010,06,18,05,59,8.90
2010,06,18,06,00,8.90
2010,06,18,06,01,8.90
2010,06,18,06,02,8.90
2010,06,18,06,03,8.90
2010,06,18,06,04,8.90
2010,06,18,06,05,9.00
2010,06,18,06,06,9.00
2010,06,18,06,07,9.00
2010,06,18,06,08,9.00
2010,06,18,06,09,9.10
2010,06,18,06,10,9.10
2010,06,18,06,11,9.10
2010,06,18,06,12,9.10
2010,06,18,06,13,9.10
2010,06,18,06,14,9.20
2010,06,18,06,15,9.20
2010,06,18,06,16,9.20
2010,06,18,06,17,9.20
2010,06,18,06,18,9.20
2010,06,18,06,19,9.20
2010,06,18,06,20,9.20
2010,06,18,06,21,9.20
2010,06,18,06,22,9.30
2010,06,18,06,23,9.30
2010,06,18,06,24,9.30
2010,06,18,06,25,9.30
2010,06,18,06,26,9.30
2010,06,18,06,27,9.30
2010,06,18,06,28,9.30
2010,06,18,06,29,9.30
2010,06,18,06,30,9.30
2010,06,18,06,31,9.30
2010,06,18,06,32,9.30
2010,06,18,06,33,9.30
2010,06,18,06,34,9.30
2010,06,18,06,35,9.40
2010,06,18,06,36,9.40
2010,06,18,06,37,9.40
2010,06,18,06,38,9.40
2010,06,18,06,39,9.40
2010,06,18,06,40,9.40
2010,06,18,06,41,9.40
2010,06,18,06,42,9.40
2010,06,18,06,43,9.40
2010,06,18,06,44,9.40
2010,06,18,06,45,9.50
2010,06,18,06,46,9.50
2010,06,18,06,47,9.50
2010,06,18,06,48,9.50
2010,06,18,06,49,9.60
2010,06,18,06,50,9.60
2010,06,18,06,51,9.60
2010,06,18,06,52,9.60
2010,06,18,06,53,9.60
2010,06,18,06,54,9.60
2010,06,18,06,55,9.60
2010,06,18,06,56,9.60
2010,06,18,06,57,9.70
2010,06,18,06,58,9.70
2010,06,18,06,59,9.70
2010,06,18,07,00,9.70
2010,06,18,07,01,9.70
2010,06,18,07,02,9.70
2010,06,18,07,03,9.80
2010,06,18,07,04,9.80
2010,06,18,07,05,9.80
2010,06,18,07,06,9.80
2010,06,18,07,07,9.80
2010,06,18,07,08,9.80
2010,06,18,07,09,9.90
2010,06,18,07,10,9.90
2010,06,18,07,11,9.90
2010,06,18,07,12,9.90
2010,06,18,07,13,9.90
2010,06,18,07,14,10.00
2010,06,18,07,15,10.00
2010,06,18,07,16,10.00
2010,06,18,07,17,10.00
2010,06,18,07,18,10.10
2010,06,18,07,19,10.10
2010,06,18,07,20,10.10
2010,06,18,07,21,10.10
2010,06,18,07,22,10.10
2010,06,18,07,23,10.20
2010,06,18,07,24,10.20
2010,06,18,07,25,10.20
2010,06,18,07,26,10.20
2010,06,18,07,27,10.20
2010,06,18,07,28,10.20
2010,06,18,07,29,10.30
2010,06,18,07,30,10.30
2010,06,18,07,31,10.30
2010,06,18,07,32,10.30
2010,06,18,07,33,10.30
2010,06,18,07,34,10.30
2010,06,18,07,35,10.40
2010,06,18,07,36,10.40
2010,06,18,07,37,10.40
2010,06,18,07,38,10.40
2010,06,18,07,39,10.40
2010,06,18,07,40,10.50
2010,06,18,07,41,10.50
2010,06,18,07,42,10.50
2010,06,18,07,43,10.60
2010,06,18,07,44,10.60
2010,06,18,07,45,10.60
2010,06,18,07,46,10.60
2010,06,18,07,47,10.60
2010,06,18,07,48,10.70
2010,06,18,07,49,10.70
2010,06,18,07,50,10.70
2010,06,18,07,51,10.70
2010,06,18,07,52,10.70
2010,06,18,07,53,10.70
2010,06,18,07,54,10.80
2010,06,18,07,55,10.80
2010,06,18,07,56,10.80
2010,06,18,07,57,10.80
2010,06,18,07,58,10.80
2010,06,18,07,59,10.80
2010,06,18,08,00,10.90
2010,06,18,08,01,10.90
2010,06,18,08,02,10.90
2010,06,18,08,03,10.90
2010,06,18,08,04,11.00
2010,06,18,08,05,11.00
2010,06,18,08,06,11.00
2010,06,18,08,07,11.10
2010,06,18,08,08,11.10
2010,06,18,08,09,11.10
2010,06,18,08,10,11.10
2010,06,18,08,11,11.10
2010,06,18,08,12,11.20
2010,06,18,08,13,11.20
2010,06,18,08,14,11.20
2010,06,18,08,58,12.30
2010,06,18,08,59,12.30
2010,06,18,09,00,12.30
2010,06,18,09,01,12.40
2010,06,18,09,02,12.40
2010,06,18,09,03,12.50
2010,06,18,09,04,12.50
2010,06,18,09,05,12.50
2010,06,18,09,06,12.60
2010,06,18,09,07,12.60
2010,06,18,09,08,12.70
2010,06,18,09,09,12.70
2010,06,18,09,10,12.70
2010,06,18,09,11,12.70
2010,06,18,09,12,12.70
2010,06,18,09,13,12.70
2010,06,18,09,14,12.80
2010,06,18,09,15,12.80
2010,06,18,09,16,12.80
2010,06,18,09,17,12.80
2010,06,18,09,18,12.80
2010,06,18,09,19,12.90
2010,06,18,09,20,12.90
2010,06,18,09,21,12.90
2010,06,18,09,22,13.00
2010,06,18,09,23,13.00
2010,06,18,09,24,13.10
2010,06,18,09,25,13.10
2010,06,18,09,26,13.20
2010,06,18,09,27,13.20
2010,06,18,09,28,13.20
2010,06,18,09,29,13.20
2010,06,18,09,30,13.20
2010,06,18,09,31,13.30
2010,06,18,09,32,13.30
2010,06,18,09,33,13.30
2010,06,18,09,34,13.30
2010,06,18,09,35,13.30
2010,06,18,09,36,13.30
2010,06,18,09,37,13.30
2010,06,18,09,38,13.30
2010,06,18,09,39,13.30
2010,06,18,09,40,13.30
2010,06,18,09,41,13.30
2010,06,18,09,42,13.30
2010,06,18,09,43,13.40
2010,06,18,09,44,13.40
2010,06,18,09,45,13.40
2010,06,18,09,46,13.40
2010,06,18,09,47,13.40
2010,06,18,09,48,13.50
2010,06,18,09,49,13.60
2010,06,18,09,50,13.60
2010,06,18,09,51,13.60
2010,06,18,09,52,13.70
2010,06,18,09,53,13.80
2010,06,18,09,54,13.80
2010,06,18,09,55,13.80
2010,06,18,09,56,13.90
2010,06,18,09,57,13.90
2010,06,18,09,58,14.00
2010,06,18,09,59,14.00
2010,06,18,10,00,14.10
2010,06,18,10,01,14.10
2010,06,18,10,02,14.10
2010,06,18,10,03,14.20
2010,06,18,10,04,14.20
2010,06,18,10,05,14.30
2010,06,18,10,06,14.30
2010,06,18,10,07,14.30
2010,06,18,10,08,14.40
2010,06,18,10,09,14.40
2010,06,18,10,10,14.40
2010,06,18,10,11,14.40
2010,06,18,10,12,14.40
2010,06,18,10,13,14.40
2010,06,18,10,14,14.40
2010,06,18,10,15,14.40
2010,06,18,10,16,14.40
2010,06,18,10,17,14.50
2010,06,18,10,18,14.50
2010,06,18,10,19,14.50
2010,06,18,10,20,14.50
2010,06,18,10,21,14.50
2010,06,18,10,22,14.60
2010,06,18,10,23,14.60
2010,06,18,10,24,14.60
2010,06,18,10,25,14.70
2010,06,18,10,26,14.70
2010,06,18,10,27,14.70
2010,06,18,10,28,14.70
2010,06,18,10,29,14.70
2010,06,18,10,30,14.70
2010,06,18,10,31,14.70
2010,06,18,10,32,14.80
2010,06,18,10,33,14.80
2010,06,18,10,34,14.80
2010,06,18,10,35,14.80
2010,06,18,10,36,14.80
2010,06,18,10,37,14.80
2010,06,18,10,38,14.80
2010,06,18,10,39,14.90
2010,06,18,10,40,14.90
2010,06,18,10,41,15.00
2010,06,18,10,42,15.00
2010,06,18,10,43,15.00
2010,06,18,10,44,15.00
2010,06,18,10,45,15.00
2010,06,18,10,46,15.00
2010,06,18,10,47,15.00
2010,06,18,10,48,15.00
2010,06,18,10,49,15.00
2010,06,18,10,50,15.10
2010,06,18,10,51,15.10
2010,06,18,10,52,15.20
2010,06,18,10,53,15.20
2010,06,18,10,54,15.30
2010,06,18,10,55,15.30
2010,06,18,10,56,15.40
2010,06,18,10,57,15.40
2010,06,18,10,58,15.50
2010,06,18,10,59,15.60
2010,06,18,11,00,15.60
2010,06,18,11,01,15.70
2010,06,18,11,02,15.80
2010,06,18,11,03,15.80
2010,06,18,11,04,15.90
2010,06,18,11,05,15.90
2010,06,18,11,06,16.00
2010,06,18,11,07,16.00
2010,06,18,11,08,16.10
2010,06,18,11,09,16.20
2010,06,18,11,10,16.30
2010,06,18,11,11,16.40
2010,06,18,11,12,16.40
2010,06,18,11,13,16.50
2010,06,18,11,14,16.60
2010,06,18,11,15,16.60
2010,06,18,11,16,16.70
2010,06,18,11,17,16.80
2010,06,18,11,18,16.80
2010,06,18,11,19,16.90
2010,06,18,11,20,17.00
2010,06,18,11,21,17.10
2010,06,18,11,22,17.10
2010,06,18,11,23,17.10
2010,06,18,11,24,17.20
2010,06,18,11,25,17.30
2010,06,18,11,26,17.40
2010,06,18,11,27,17.50
2010,06,18,11,28,17.50
2010,06,18,11,29,17.60
2010,06,18,11,30,17.60
2010,06,18,11,31,17.70
2010,06,18,11,32,17.70
2010,06,18,11,33,17.70
2010,06,18,11,34,17.80
2010,06,18,11,35,17.80
2010,06,18,11,36,17.80
2010,06,18,11,37,17.70
2010,06,18,11,38,17.70
2010,06,18,11,39,17.70
2010,06,18,11,40,17.60
2010,06,18,11,41,17.60
2010,06,18,11,42,17.50
2010,06,18,11,43,17.50
2010,06,18,11,44,17.50
2010,06,18,11,45,17.50
2010,06,18,11,46,17.60
2010,06,18,11,47,17.70
2010,06,18,11,48,17.80
2010,06,18,11,49,17.90
2010,06,18,11,50,18.00
2010,06,18,11,51,18.20
2010,06,18,11,52,18.30
2010,06,18,11,53,18.40
2010,06,18,11,54,18.50
2010,06,18,11,55,18.60
2010,06,18,11,56,18.60
2010,06,18,11,57,18.70
2010,06,18,11,58,18.70
2010,06,18,11,59,18.80
2010,06,18,12,00,18.80
2010,06,18,12,01,18.90
2010,06,18,12,02,18.90
2010,06,18,12,03,19.00
2010,06,18,12,04,19.00
2010,06,18,12,05,19.10
2010,06,18,12,06,19.10
2010,06,18,12,07,19.10
2010,06,18,12,08,19.00
2010,06,18,12,09,19.00
2010,06,18,12,10,18.90
2010,06,18,12,11,19.00
2010,06,18,12,12,19.10
2010,06,18,12,13,19.10
2010,06,18,12,14,19.20
2010,06,18,12,15,19.20
2010,06,18,12,16,19.20
2010,06,18,12,17,19.10
2010,06,18,12,18,19.00
2010,06,18,12,19,18.90
2010,06,18,12,20,18.90
2010,06,18,12,21,18.90
2010,06,18,12,22,19.00
2010,06,18,12,23,19.00
2010,06,18,12,24,19.10
2010,06,18,12,25,19.20
2010,06,18,12,26,19.20
2010,06,18,12,27,19.10
2010,06,18,12,28,19.20
2010,06,18,12,29,19.20
2010,06,18,12,30,19.30
2010,06,18,12,31,19.30
2010,06,18,12,32,19.40
2010,06,18,12,33,19.40
2010,06,18,12,34,19.50
2010,06,18,12,35,19.50
2010,06,18,12,36,19.60
2010,06,18,12,37,19.60
2010,06,18,12,38,19.50
2010,06,18,12,39,19.50
2010,06,18,12,40,19.40
2010,06,18,12,41,19.30
2010,06,18,12,42,19.30
2010,06,18,12,43,19.30
2010,06,18,12,44,19.30
2010,06,18,12,45,19.30
2010,06,18,12,46,19.30
2010,06,18,12,47,19.40
2010,06,18,12,48,19.40
2010,06,18,12,49,19.50
2010,06,18,12,50,19.50
2010,06,18,12,51,19.60
2010,06,18,12,52,19.60
2010,06,18,12,53,19.70
2010,06,18,12,54,19.70
2010,06,18,12,55,19.60
2010,06,18,12,56,19.50
2010,06,18,12,57,19.40
2010,06,18,12,58,19.40
2010,06,18,12,59,19.40
2010,06,18,13,00,19.40
2010,06,18,13,01,19.50
2010,06,18,13,02,19.60
2010,06,18,13,03,19.60
2010,06,18,13,04,19.60
2010,06,18,13,05,19.70
2010,06,18,13,06,19.80
2010,06,18,13,07,19.90
2010,06,18,13,08,20.00
2010,06,18,13,09,20.00
2010,06,18,13,10,20.10
2010,06,18,13,11,20.10
2010,06,18,13,12,20.10
2010,06,18,13,13,20.20
2010,06,18,13,14,20.20
2010,06,18,13,15,20.30
2010,06,18,13,16,20.30
2010,06,18,13,17,20.40
2010,06,18,13,18,20.40
2010,06,18,13,19,20.50
2010,06,18,13,20,20.50
2010,06,18,13,21,20.60
2010,06,18,13,22,20.60
2010,06,18,13,23,20.60
2010,06,18,13,24,20.70
2010,06,18,13,25,20.60
2010,06,18,13,26,20.60
2010,06,18,13,27,20.60
2010,06,18,13,28,20.60
2010,06,18,13,29,20.50
2010,06,18,13,30,20.50
2010,06,18,13,31,20.40
2010,06,18,13,32,20.40
2010,06,18,13,33,20.40
2010,06,18,13,34,20.50
2010,06,18,13,35,20.50
2010,06,18,13,36,20.40
2010,06,18,13,37,20.30
2010,06,18,13,38,20.20
2010,06,18,13,39,20.20
2010,06,18,13,40,20.20
2010,06,18,13,41,20.20
2010,06,18,13,42,20.20
2010,06,18,13,43,20.30
2010,06,18,13,44,20.40
2010,06,18,13,45,20.40
2010,06,18,13,46,20.40
2010,06,18,13,47,20.40
2010,06,18,13,48,20.30
2010,06,18,13,49,20.10
2010,06,18,13,50,20.00
2010,06,18,13,51,20.00
2010,06,18,13,52,19.90
2010,06,18,13,53,19.90
2010,06,18,13,54,19.80
2010,06,18,13,55,19.80
2010,06,18,13,56,19.80
2010,06,18,13,57,19.80
2010,06,18,13,58,19.70
2010,06,18,13,59,19.70
2010,06,18,14,00,19.70
2010,06,18,14,01,19.70
2010,06,18,14,02,19.70
2010,06,18,14,03,19.70
2010,06,18,14,04,19.60
2010,06,18,14,05,19.40
2010,06,18,14,06,19.20
2010,06,18,14,07,19.00
2010,06,18,14,08,19.00
2010,06,18,14,09,18.90
2010,06,18,14,10,19.00
2010,06,18,14,11,19.00
2010,06,18,14,12,19.10
2010,06,18,14,13,19.10
2010,06,18,14,14,19.20
2010,06,18,14,15,19.20
2010,06,18,14,16,19.20
2010,06,18,14,17,19.10
2010,06,18,14,18,19.00
2010,06,18,14,19,18.90
2010,06,18,14,20,18.80
2010,06,18,14,21,18.80
2010,06,18,14,22,18.80
2010,06,18,14,23,18.90
2010,06,18,14,24,18.90
2010,06,18,14,25,19.00
2010,06,18,14,26,19.20
2010,06,18,14,27,19.30
2010,06,18,14,28,19.40
2010,06,18,14,29,19.50
2010,06,18,14,30,19.70
2010,06,18,14,31,19.80
2010,06,18,14,32,19.90
2010,06,18,14,33,20.00
2010,06,18,14,34,19.90
2010,06,18,14,35,19.90
2010,06,18,14,36,20.00
2010,06,18,14,37,20.00
2010,06,18,14,38,20.10
2010,06,18,14,39,20.20
2010,06,18,14,40,20.30
2010,06,18,14,41,20.40
2010,06,18,14,42,20.40
2010,06,18,14,43,20.40
2010,06,18,14,44,20.40
2010,06,18,14,45,20.40
2010,06,18,14,46,20.40
2010,06,18,14,47,20.50
2010,06,18,14,48,20.50
2010,06,18,14,49,20.70
2010,06,18,14,50,20.80
2010,06,18,14,51,20.80
2010,06,18,14,52,20.80
2010,06,18,14,53,20.80
2010,06,18,14,54,20.90
2010,06,18,14,55,20.90
2010,06,18,14,56,20.90
2010,06,18,14,57,21.00
2010,06,18,14,58,21.00
2010,06,18,14,59,21.00
2010,06,18,15,00,21.10
2010,06,18,15,01,21.10
2010,06,18,15,02,21.30
2010,06,18,15,03,21.30
2010,06,18,15,04,21.30
2010,06,18,15,05,21.30
2010,06,18,15,06,21.30
2010,06,18,15,07,21.20
2010,06,18,15,08,21.20
2010,06,18,15,09,21.10
2010,06,18,15,10,21.00
2010,06,18,15,11,21.00
2010,06,18,15,12,21.00
2010,06,18,15,13,21.00
2010,06,18,15,14,21.00
2010,06,18,15,15,20.90
2010,06,18,15,16,21.00
2010,06,18,15,17,21.00
2010,06,18,15,18,21.00
2010,06,18,15,19,21.00
2010,06,18,15,20,21.00
2010,06,18,15,21,21.10
2010,06,18,15,22,21.10
2010,06,18,15,23,21.20
2010,06,18,15,24,21.20
2010,06,18,15,25,21.30
2010,06,18,15,26,21.30
2010,06,18,15,27,21.30
2010,06,18,15,28,21.40
2010,06,18,15,29,21.40
2010,06,18,15,30,21.30
2010,06,18,15,31,21.30
2010,06,18,15,32,21.30
2010,06,18,15,33,21.30
2010,06,18,15,34,21.30
2010,06,18,15,35,21.30
2010,06,18,15,36,21.30
2010,06,18,15,37,21.30
2010,06,18,15,38,21.30
2010,06,18,15,39,21.20
2010,06,18,15,40,21.10
2010,06,18,15,41,21.10
2010,06,18,15,42,21.00
2010,06,18,15,43,21.00
2010,06,18,15,44,20.90
2010,06,18,15,45,20.90
2010,06,18,15,46,20.90
2010,06,18,15,47,21.00
2010,06,18,15,48,21.00
2010,06,18,15,49,21.00
2010,06,18,15,50,21.00
2010,06,18,15,51,20.90
2010,06,18,15,52,21.00
2010,06,18,15,53,21.00
2010,06,18,15,54,21.00
2010,06,18,15,55,21.00
2010,06,18,15,56,21.00
2010,06,18,15,57,20.90
2010,06,18,15,58,21.00
2010,06,18,15,59,21.00
2010,06,18,16,00,21.10
2010,06,18,16,01,21.20
2010,06,18,16,02,21.20
2010,06,18,16,03,21.30
2010,06,18,16,04,21.40
2010,06,18,16,05,21.40
2010,06,18,16,06,21.50
2010,06,18,16,07,21.60
2010,06,18,16,08,21.60
2010,06,18,16,09,21.60
2010,06,18,16,10,21.70
2010,06,18,16,11,21.70
2010,06,18,16,12,21.70
2010,06,18,16,13,21.70
2010,06,18,16,14,21.70
2010,06,18,16,15,21.80
2010,06,18,16,16,21.80
2010,06,18,16,17,21.80
2010,06,18,16,18,21.90
2010,06,18,16,19,22.00
2010,06,18,16,20,22.00
2010,06,18,16,21,22.10
2010,06,18,16,22,22.10
2010,06,18,16,23,22.10
2010,06,18,16,24,22.10
2010,06,18,16,25,22.00
2010,06,18,16,26,21.90
2010,06,18,16,27,21.90
2010,06,18,16,28,21.90
2010,06,18,16,29,21.80
2010,06,18,16,30,21.80
2010,06,18,16,31,21.80
2010,06,18,16,32,21.80
2010,06,18,16,33,21.80
2010,06,18,16,34,21.80
2010,06,18,16,35,21.90
2010,06,18,16,36,22.00
2010,06,18,16,37,22.00
2010,06,18,16,38,22.10
2010,06,18,16,39,22.10
2010,06,18,16,40,22.10
2010,06,18,16,41,22.10
2010,06,18,16,42,22.10
2010,06,18,16,43,22.10
2010,06,18,16,44,22.10
2010,06,18,16,45,22.10
2010,06,18,16,46,22.10
2010,06,18,16,47,22.10
2010,06,18,16,48,22.20
2010,06,18,16,49,22.20
2010,06,18,16,50,22.30
2010,06,18,16,51,22.30
2010,06,18,16,52,22.40
2010,06,18,16,53,22.40
2010,06,18,16,54,22.40
2010,06,18,16,55,22.40
2010,06,18,16,56,22.40
2010,06,18,16,57,22.40
2010,06,18,16,58,22.30
2010,06,18,16,59,22.30
2010,06,18,17,00,22.30
2010,06,18,17,01,22.20
2010,06,18,17,02,22.20
2010,06,18,17,03,22.20
2010,06,18,17,04,22.20
2010,06,18,17,05,22.20
2010,06,18,17,06,22.20
2010,06,18,17,07,22.20
2010,06,18,17,08,22.20
2010,06,18,17,09,22.30
2010,06,18,17,10,22.30
2010,06,18,17,11,22.30
2010,06,18,17,12,22.30
2010,06,18,17,13,22.40
2010,06,18,17,14,22.40
2010,06,18,17,15,22.40
2010,06,18,17,16,22.40
2010,06,18,17,17,22.40
2010,06,18,17,18,22.40
2010,06,18,17,19,22.30
2010,06,18,17,20,22.30
2010,06,18,17,21,22.40
2010,06,18,17,22,22.40
2010,06,18,17,23,22.40
2010,06,18,17,24,22.40
2010,06,18,17,25,22.40
2010,06,18,17,26,22.40
2010,06,18,17,27,22.40
2010,06,18,17,28,22.40
2010,06,18,17,29,22.40
2010,06,18,17,30,22.50
2010,06,18,17,31,22.50
2010,06,18,17,32,22.50
2010,06,18,17,33,22.50
2010,06,18,17,34,22.50
2010,06,18,17,35,22.50
2010,06,18,17,36,22.50
2010,06,18,17,37,22.60
2010,06,18,17,38,22.60
2010,06,18,17,39,22.60
2010,06,18,17,40,22.60
2010,06,18,17,41,22.60
2010,06,18,17,42,22.50
2010,06,18,17,43,22.50
2010,06,18,17,44,22.50
2010,06,18,17,45,22.50
2010,06,18,17,46,22.60
2010,06,18,17,47,22.60
2010,06,18,17,48,22.60
2010,06,18,17,49,22.60
2010,06,18,17,50,22.60
2010,06,18,17,51,22.60
2010,06,18,17,52,22.70
2010,06,18,17,53,22.70
2010,06,18,17,54,22.70
2010,06,18,17,55,22.70
2010,06,18,17,56,22.70
2010,06,18,17,57,22.70
2010,06,18,17,58,22.80
2010,06,18,17,59,22.80
2010,06,18,18,00,22.80
2010,06,18,18,01,22.80
2010,06,18,18,02,22.80
2010,06,18,18,03,22.80
2010,06,18,18,04,22.90
2010,06,18,18,05,22.90
2010,06,18,18,06,22.90
2010,06,18,18,07,22.90
2010,06,18,18,08,22.90
2010,06,18,18,09,22.80
2010,06,18,18,10,22.90
2010,06,18,18,11,22.90
2010,06,18,18,12,22.80
2010,06,18,18,13,22.80
2010,06,18,18,14,22.80
2010,06,18,18,15,22.70
2010,06,18,18,16,22.60
2010,06,18,18,17,22.60